Powrót do katalogu

STARLINK-3514

AktywnyŁącznośćVLEO
NORAD 51731·PAYLOAD·🇺🇸 United States

Wystrzelony Feb 21, 2022 z Cape Canaveral Space Force Station

Loading…

Następne Przeloty (najbliższe 24 godziny)

TLE

ŚwieżeSource: CelesTrak SupGP

Epoka: Sep 15, 2026, 02:42 UTC

1 51731C 22016T   26258.11298611 -.00000419  00000+0 -11979-4 0  2584
2 51731  53.1573 174.9582 0001346  88.6790 133.6461 15.35397292    12

Śledź STARLINK-3514 w czasie rzeczywistym z AllMySat

Download on the App Store